Fort Stockton, TX

4:48 PM CDT on October 17, 2017 (GMT -0500)
Fort Stockton-Pecos County

Weather History for KFST - February, 2012

Change the Weather History Date:

Monday, February 6, 2012

  Actual Average Record
Temperature  
Mean Temperature 50 °F -  
Max Temperature 60 °F 60 °F 84 °F (2009)
Min Temperature 41 °F 36 °F 15 °F (2014)
Degree Days  
Heating Degree Days 14    
Moisture  
Dew Point 27 °F    
Average Humidity 44    
Maximum Humidity 65    
Minimum Humidity 30    
Precipitation  
Precipitation 0.00 in - - ()
Sea Level Pressure  
Sea Level Pressure 30.12 in    
Wind  
Wind Speed 9 mph (SE)    
Max Wind Speed 17 mph    
Max Gust Speed 21 mph    
Visibility 10 miles    
Events      
Averages and records for this station are not official NWS values.
T = Trace of Precipitation, MM = Missing Value Source: NWS Daily Summary

Daily Weather History Graph

Daily Weather History Graph

Search for Another Location

Airport or City:

Trip Planner

Search our weather history database for the weather conditions in past years. The results will help you decide how hot, cold, wet, or windy it might be!

Date:

Astronomy

Feb. 06, 2012 Rise Set
Actual Time 7:40 AM CST 6:31 PM CST
Civil Twilight 7:15 AM CST 6:56 PM CST
Nautical Twilight 6:46 AM CST 7:25 PM CST
Astronomical Twilight 6:18 AM CST 7:53 PM CST
Moon 5:38 PM CST (2/6) 6:31 AM CST (2/6)
Length of Visible Light 11h 41m
Length of Day
10h 51m
Waxing Gibbous, 98% of the Moon is Illuminated
Feb 6
Waxing Gibbous
Feb 7
Full
Feb 14
Last Quarter
Feb 21
New
Feb 29
First Quarter

Hourly Weather History & Observations

Time (CST) Temp. Windchill Dew Point Humidity Pressure Visibility Wind Dir Wind Speed Gust Speed Precip Events Conditions
12:53 AM 42.1 °F 39.2 °F 23.0 °F 47% 30.27 in 10.0 mi East 4.6 mph - N/A   Overcast
1:53 AM 42.1 °F 39.2 °F 24.1 °F 49% 30.26 in 10.0 mi East 4.6 mph - N/A   Overcast
2:53 AM 42.1 °F 38.4 °F 24.1 °F 49% 30.25 in 10.0 mi East 5.8 mph - N/A   Overcast
3:53 AM 42.1 °F 38.4 °F 24.1 °F 49% 30.23 in 10.0 mi East 5.8 mph - N/A   Overcast
4:53 AM 42.1 °F 37.1 °F 24.1 °F 49% 30.22 in 10.0 mi ESE 8.1 mph - N/A   Overcast
5:53 AM 41.0 °F 35.2 °F 24.1 °F 51% 30.22 in 10.0 mi ESE 9.2 mph - N/A   Overcast
6:53 AM 41.0 °F 36.4 °F 25.0 °F 53% 30.22 in 10.0 mi East 6.9 mph - N/A   Overcast
7:53 AM 41.0 °F 35.8 °F 25.0 °F 53% 30.23 in 10.0 mi ESE 8.1 mph - N/A   Overcast
8:53 AM 42.1 °F 36.6 °F 24.1 °F 49% 30.25 in 10.0 mi SE 9.2 mph - N/A   Overcast
9:53 AM 44.1 °F 38.1 °F 24.1 °F 45% 30.24 in 10.0 mi SE 11.5 mph - N/A   Clear
10:53 AM 46.9 °F - 25.0 °F 42% 30.22 in 10.0 mi SSE 12.7 mph 18.4 mph N/A   Clear
11:53 AM 48.9 °F - 25.0 °F 39% 30.18 in 10.0 mi SSE 11.5 mph - N/A   Clear
12:53 PM 53.1 °F - 25.0 °F 34% 30.12 in 10.0 mi SE 10.4 mph - N/A   Clear
1:53 PM 57.0 °F - 27.0 °F 32% 30.07 in 10.0 mi SSE 11.5 mph - N/A   Clear
2:53 PM 57.9 °F - 27.0 °F 31% 30.03 in 10.0 mi SE 13.8 mph 18.4 mph N/A   Clear
3:53 PM 60.1 °F - 28.0 °F 30% 30.00 in 10.0 mi SE 10.4 mph - N/A   Clear
4:53 PM 60.1 °F - 28.0 °F 30% 29.99 in 10.0 mi ESE 12.7 mph - N/A   Clear
5:53 PM 57.0 °F - 28.9 °F 34% 29.99 in 10.0 mi SE 12.7 mph - N/A   Clear
6:53 PM 54.0 °F - 30.0 °F 40% 29.99 in 10.0 mi SE 12.7 mph 20.7 mph N/A   Clear
7:53 PM 50.0 °F - 30.0 °F 46% 30.01 in 10.0 mi SE 11.5 mph - N/A   Clear
8:53 PM 48.0 °F - 30.0 °F 50% 30.02 in 10.0 mi SE 12.7 mph - N/A   Clear
9:53 PM 46.9 °F - 30.0 °F 52% 30.01 in 10.0 mi SSE 17.3 mph - N/A   Clear
10:53 PM 46.0 °F 39.3 °F 30.9 °F 56% 30.01 in 10.0 mi SSE 16.1 mph - N/A   Clear
11:53 PM 44.1 °F 37.1 °F 33.1 °F 65% 30.01 in 10.0 mi SSE 15.0 mph - N/A   Clear